Regional Weather Roundup
Issued by NWS

Home | Current Version | Previous Version | Text Only | Print | Product List | Glossary On
Versions: 1 2 3 4 5 6 7 8 9 10 11 12 13 14 15 16 17 18 19 20 21 22 23 24 25 26 27
000
ASUS44 KBMX 220310
RWRAL

ALABAMA REGIONAL WEATHER ROUNDUP
NATIONAL WEATHER SERVICE BIRMINGHAM AL
1000 PM CDT SAT APR 21 2018

NOTE: "FAIR" INDICATES FEW OR NO CLOUDS BELOW 12,000 FEET
WITH NO SIGNIFICANT WEATHER AND/OR OBSTRUCTIONS TO VISIBILITY.

THE REMARK "TC" DENOTES TEMPERATURE IN DEGREES CELSIUS.

ALZ001>011-014-016>018-020-220400-
NORTH ALABAMA

CITY           SKY/WX    TMP DP  RH WIND       PRES   REMARKS
MUSCLE SHOALS  MOCLDY    65  47  52 E5        30.16F
HUNTSVILLE     CLOUDY    66  51  58 SE7       30.18R
DECATUR        CLOUDY    67  48  50 SE6       30.19R
HALEYVILLE     CLOUDY    65  51  60 SE3       30.18F
GADSDEN        CLOUDY    66  47  50 VRB5      30.21R
$$

ALZ012-013-022-023-030>036-040>044-220400-
WEST CENTRAL ALABAMA

CITY           SKY/WX    TMP DP  RH WIND       PRES   REMARKS
TUSCALOOSA     CLOUDY    70  53  54 E3        30.14R
DEMOPOLIS      MOCLDY    63  56  79 CALM      30.11S
$$

ALZ015-024>026-033>036-041>044-220400-
CENTRAL ALABAMA

CITY           SKY/WX    TMP DP  RH WIND       PRES   REMARKS
BIRMINGHAM     CLOUDY    68  45  43 SE9       30.20R
MONTGOMERY     MOCLDY    67  56  67 E13       30.16R
SHELBY CO ARPT CLOUDY    67  48  50 VRB5      30.17R
MAXWELL AFB    CLOUDY    66  53  63 E13       30.15R
GREENVILLE     LGT RAIN  67  56  67 E12       30.14R
SELMA          FAIR      68  54  60 E8G14     30.14S
PRATTVILLE     CLOUDY    67  55  65 E7        30.16R
BESSEMER       CLOUDY    67  48  50 E6        30.17S
TALLADEGA      MOCLDY    66  44  45 CALM      30.20R
PELL CITY      CLEAR     63  46  55 CALM      30.20R
MARION         CLOUDY    66  55  67 E6        30.12S
SYLACAUGA      FAIR      65  49  57 SE9G17    30.19R
$$

ALZ019-021-028-029-037-038-045>048-220400-
EAST CENTRAL ALABAMA

CITY           SKY/WX    TMP DP  RH WIND       PRES   REMARKS
ANNISTON       FAIR      65  43  44 NE10      30.20F
ALEXANDER CITY FAIR      64  54  70 E5        30.19S
AUBURN         CLOUDY    64  54  69 SE10      30.21F
$$

ALZ051>064-220400-
SOUTHWEST ALABAMA

CITY           SKY/WX    TMP DP  RH WIND       PRES   REMARKS
MOBILE         FAIR      65  62  90 SE6       30.09F
BROOKLEY FIELD FAIR      69  65  86 E8        30.10F
EVERGREEN      CLOUDY    70  59  68 E7        30.12S
$$

ALZ049-050-065>069-220400-
SOUTHEAST ALABAMA

CITY           SKY/WX    TMP DP  RH WIND       PRES   REMARKS
DOTHAN         CLOUDY    68  58  70 E14G20    30.19S
OZARK          MOCLDY    68  59  73 E12       30.15R
TROY           MOCLDY    65  57  75 E6        30.16S
EUFAULA        CLOUDY    66  59  78 E8G20     30.19R
$$




USA.gov is the U.S. government's official web portal to all federal, state and local government web resources and services.